Location: Marcé
(47.5801°N, 0.3280°W)
Time: 20:47:32
(UTC+01:00)

Tiros 1 despin weight - Pass Details

Date: 11 December 2021
Orbit: 592 x 641 km, 48.2° (Epoch: 16 January)

Event Time Altitude Azimuth Distance (km) Brightness Sun altitude
Rises 11:28:18 0° 227° (SW) 2,861 ? 16.8°
Reaches altitude 10° 11:30:43 10° 220° (SW) 1,951 ? 16.9°
Maximum altitude 11:34:53 40° 151° (SSE) 891 ? 17.1°
Drops below altitude 10° 11:39:02 10° 82° (E) 1,934 ? 17.4°
Sets 11:41:25 0° 75° (ENE) 2,834 ? 17.5°
